Location: La Sioule Rivi�re
(46.3664°N, 3.3197°E)
Time: 12:10:57
(UTC+00:00)

Cosmos 1726 Rocket - Pass Details

Date: 29 October 2020
Orbit: 604 x 628 km, 82.5° (Epoch: 23 November)

Event Time Altitude Azimuth Distance (km) Brightness Sun altitude
Rises 17:22:50 0° 187° (S) 2,857 7.2 -8.6°
Reaches altitude 10° 17:25:01 10° 188° (S) 1,961 6.4 -9.0°
Maximum altitude 17:29:22 90° 257° (WSW) 621 3.6 -9.7°
Drops below altitude 10° 17:33:48 10° 9° (N) 1,993 6.0 -10.5°
Sets 17:36:03 0° 10° (N) 2,908 6.8 -10.9°
